Temperature
29 29 29 28 27 27 27 28 28 28 28 29 28 27 26 25 25 25 24 23 23 22 21 20 20 19 19 19 18 18 17 17 17 17 16 16 16 16 16 16 16 16 16 16
27 28 28 28 28 28 28 28 28 28 29 30 28 27 26 25 25 25 24 23 22 22 21 20 20 19 19 19 18 18 18 17 17 16 16 16 16 16 16 16 16 15 15 15
26 27 27 27 28 28 28 29 29 28 28 28 27 27 25 25 25 24 23 23 22 21 20 20 19 19 19 18 18 18 17 17 17 16 16 16 16 16 16 15 15 15 15 14
25 25 24 27 29 29 28 28 28 28 27 27 26 24 24 23 23 23 22 21 21 20 20 19 19 18 18 18 17 17 17 16 16 16 16 16 15 15 15 15 14 14 14 14
24 24 25 27 27 27 27 26 27 26 26 25 24 24 22 21 21 21 20 20 20 20 19 19 18 18 18 17 17 17 16 16 16 16 15 15 15 14 14 14 13 13 13 13
24 23 23 25 26 26 26 24 24 24 23 23 23 23 21 19 19 18 19 19 19 18 18 18 18 17 17 16 16 16 15 15 15 15 14 14 14 13 13 13 13 12 12 12
23 23 24 24 25 25 23 22 22 22 21 21 21 20 18 17 17 17 17 17 17 17 17 17 17 17 16 16 15 15 14 14 14 14 13 13 13 12 12 12 12 12 11 11
22 22 22 23 23 22 20 21 21 20 20 19 18 17 16 16 15 16 16 16 16 16 15 15 15 15 15 14 14 14 13 13 13 12 12 12 12 11 11 11 11 11 11 10
22 22 21 21 21 20 20 19 19 19 18 18 17 16 15 14 14 14 14 14 14 14 14 14 14 14 14 13 13 13 13 12 12 11 11 11 11 11 11 11 11 11 10 10
22 22 21 20 19 18 17 17 17 17 16 16 15 14 14 13 13 13 13 13 13 13 13 12 12 13 12 12 12 12 12 11 11 11 10 11 10 11 11 11 11 10 10 9
21 21 20 19 17 16 15 15 15 15 15 14 14 13 13 12 12 12 12 12 12 12 11 11 11 11 11 11 11 11 11 10 10 10 10 10 10 10 10 10 10 10 9 9
19 19 18 16 15 14 14 13 13 13 13 13 12 12 12 11 11 11 11 11 11 10 10 10 10 10 10 10 10 10 10 10 10 10 10 10 10 10 9 9 9 9 8 8
18 16 15 14 13 13 12 12 12 11 11 11 11 11 10 10 10 10 10 10 10 10 10 10 10 10 10 10 10 10 10 10 10 10 10 9 9 9 9 8 8 7 7 7
16 15 14 13 12 12 11 11 10 10 10 10 10 10 9 9 9 9 9 9 9 9 9 9 9 9 9 9 9 10 10 10 10 10 9 9 9 9 8 8 7 7 6 6
15 14 13 12 11 11 10 10 10 9 9 9 9 9 9 8 8 8 8 8 9 9 9 9 9 9 9 9 9 9 9 9 9 9 9 9 9 8 8 7 7 6 6 5
13 13 12 11 11 10 10 10 9 9 9 8 8 8 8 8 8 8 8 8 9 8 8 8 8 8 9 9 9 9 9 9 9 9 9 8 8 8 8 7 7 6 5 5
13 12 11 11 10 10 10 10 10 9 9 8 8 8 8 8 8 8 8 8 8 8 8 8 8 8 8 8 9 8 8 8 8 8 8 8 8 8 7 7 6 6 5 5
13 12 11 11 10 10 10 10 9 9 9 9 9 9 9 9 8 8 8 8 8 8 8 8 8 8 8 8 8 8 8 8 8 7 7 7 7 7 7 6 6 6 5 5
12 12 11 11 10 10 10 10 10 9 9 9 9 9 9 9 9 8 8 8 8 8 8 8 8 8 8 8 8 8 8 8 7 7 7 7 7 6 6 6 6 5 5 4
12 12 11 11 11 10 10 10 10 10 10 9 9 9 9 9 9 8 8 8 8 8 8 7 7 7 7 8 8 8 8 8 7 7 7 7 6 6 6 6 5 5 4 4
12 11 11 11 11 11 10 10 10 10 10 10 10 9 9 9 9 9 8 8 8 8 8 7 7 7 7 7 8 7 7 7 7 7 6 6 6 6 5 5 5 4 4 4
11 11 11 11 11 11 11 10 10 10 10 10 10 9 9 9 9 8 8 8 8 8 7 7 7 7 7 7 7 7 7 7 6 6 6 6 6 5 5 5 4 4 4 3
11 11 11 11 11 11 10 10 10 10 10 10 9 9 9 9 9 8 8 8 7 7 7 7 7 7 7 7 7 7 6 6 6 6 6 5 5 5 5 4 4 4 3 3
10 11 11 11 11 10 10 10 10 10 10 10 9 9 9 9 9 8 8 8 7 7 7 7 7 6 6 6 7 6 6 6 6 6 6 5 5 5 5 4 4 4 3 3
10 10 11 10 10 10 10 10 10 10 10 9 9 9 9 9 8 8 7 7 7 7 6 6 6 6 6 6 6 6 6 6 6 5 5 5 5 5 4 4 4 4 3 3
10 10 10 11 10 10 10 10 10 10 10 9 9 9 9 8 8 8 7 7 7 6 6 6 6 6 6 6 6 6 6 5 5 5 5 5 5 4 4 4 4 4 3 3
10 10 10 10 10 10 10 10 10 10 10 9 9 9 9 8 8 7 7 7 6 6 6 6 6 6 6 6 6 6 6 6 5 5 5 5 5 4 4 4 4 4 3 3
Wind_Speed
16 14 10 9 8 11 14 14 15 13 12 6 2 2 4 5 6 8 11 10 11 12 11 11 10 10 10 10 10 11 11 10 10 9 8 7 7 6 6 6 5 4 4 4
14 15 14 11 11 13 15 15 16 16 14 7 2 1 2 3 7 8 11 12 11 12 12 11 10 10 9 9 9 9 9 9 9 9 9 8 8 8 7 6 6 7 7 7
14 15 15 15 13 12 12 13 13 13 10 9 7 6 3 1 3 7 9 11 11 11 10 9 9 9 8 8 9 9 9 8 9 9 8 8 9 9 8 8 8 9 9 10
12 14 17 12 10 10 11 10 9 10 9 9 7 6 6 4 2 3 6 8 9 9 10 9 10 9 8 9 9 9 9 8 8 9 9 9 9 10 10 9 10 10 11 12
10 14 15 11 7 7 7 7 8 8 9 9 8 4 5 8 7 7 7 7 7 8 9 9 10 10 10 10 10 10 10 9 10 11 12 12 12 11 10 10 11 11 11 11
11 13 13 6 4 6 5 4 10 10 10 10 9 6 3 9 10 9 8 8 7 8 10 10 10 11 12 11 11 11 12 12 12 12 13 13 12 12 10 10 10 11 11 10
13 14 9 5 5 5 6 3 8 9 9 8 6 5 4 7 9 9 9 10 9 10 10 9 10 12 13 13 13 13 14 14 14 13 13 12 11 9 9 10 10 10 10 10
10 10 6 8 6 5 6 8 8 8 7 5 3 4 5 6 7 8 9 11 12 12 11 10 11 14 15 14 14 14 15 15 14 12 12 12 10 9 8 8 9 8 8 9
3 2 4 6 6 6 7 8 8 8 7 3 1 4 5 7 8 9 10 11 12 14 14 13 12 14 17 14 15 16 16 15 13 13 11 9 9 8 6 5 5 6 6 6
5 2 3 6 7 8 9 8 8 7 4 1 3 6 7 8 10 11 12 12 13 16 16 15 14 15 15 14 14 15 15 13 12 12 11 11 9 8 8 6 5 6 6 7
5 2 4 6 8 8 8 7 6 4 2 2 6 9 9 11 12 12 12 13 13 15 16 15 14 14 14 13 13 14 13 12 11 12 12 12 12 11 11 10 9 9 9 8
2 3 3 4 6 6 5 4 3 6 8 7 8 11 13 13 13 13 14 14 14 15 16 15 15 14 12 11 12 11 10 9 9 9 9 10 11 12 16 13 15 17 14 11
3 5 4 4 4 4 3 5 8 10 11 11 11 13 16 15 14 14 15 15 15 15 15 14 14 13 11 9 9 9 9 7 7 8 8 8 9 9 9 8 11 12 12 11
6 6 5 5 5 6 9 11 13 14 13 14 15 16 17 17 15 15 14 13 14 14 14 13 13 12 10 9 9 8 8 8 7 6 6 7 6 7 8 7 6 5 4 4
6 6 7 8 9 10 11 14 15 16 17 17 17 17 17 17 16 15 13 12 13 13 13 13 12 10 9 9 9 8 8 7 6 6 6 6 5 6 6 6 6 6 5 2
7 10 10 11 12 11 12 14 16 17 17 18 17 16 16 16 15 14 12 12 13 13 12 11 10 9 9 9 9 9 8 8 6 5 6 6 6 6 6 5 5 5 6 5
10 10 12 12 12 12 12 13 16 17 17 17 16 16 16 15 15 14 13 13 12 12 11 10 9 8 8 7 7 7 7 6 6 6 7 6 6 6 6 5 6 6 6 6
10 11 13 14 14 14 14 15 16 16 16 16 16 16 15 15 15 14 13 13 12 12 11 10 9 8 8 7 5 6 6 6 7 7 7 6 5 5 6 5 5 5 5 4
12 13 14 15 15 15 15 15 15 15 15 15 15 15 14 14 14 13 13 13 12 11 10 9 9 8 8 6 4 5 6 8 7 7 6 4 4 5 5 5 5 6 5 5
14 15 16 16 16 15 14 15 15 14 14 14 14 14 14 13 13 12 11 10 9 9 9 9 8 8 7 5 3 6 6 6 6 6 5 4 5 5 5 5 5 5 5 4
14 16 16 15 15 14 13 13 13 13 13 13 13 13 13 13 12 11 10 10 10 9 9 8 6 6 6 3 2 5 6 6 6 5 4 4 5 5 5 5 4 4 4 4
13 14 14 14 14 13 12 12 12 13 13 12 13 13 12 11 11 10 10 9 9 7 6 7 7 7 5 3 4 6 6 5 5 5 4 4 4 4 4 3 3 4 4 4
11 12 12 13 13 12 11 11 11 11 12 12 12 11 10 9 9 9 9 8 8 6 5 7 8 7 6 1 4 5 6 5 4 4 4 4 4 3 3 2 2 3 3 3
10 11 12 12 12 12 11 11 11 10 11 10 10 10 9 8 7 8 9 10 9 8 7 8 7 5 3 0 3 5 5 4 3 3 4 3 3 2 2 2 2 2 2 2
10 11 12 12 11 10 10 11 11 10 9 8 9 8 7 7 8 9 10 10 11 10 8 7 4 0 1 1 3 4 4 3 3 2 3 2 1 1 1 1 2 2 3 3
9 8 8 8 8 8 8 8 7 7 7 7 7 6 7 8 9 10 9 11 11 9 8 7 6 5 4 3 3 4 5 5 4 3 1 1 0 1 1 2 3 3 4 4
9 7 6 6 6 6 6 6 7 7 7 7 7 7 7 8 8 9 10 10 9 9 8 8 8 7 5 5 4 4 4 4 3 2 2 2 1 2 2 3 3 4 5 6
Wind_Direction
263 266 258 246 252 265 273 276 278 285 286 280 213 145 135 161 183 167 155 163 161 154 154 157 156 157 159 160 160 159 158 161 165 169 163 161 157 152 145 141 140 124 112 103
266 264 266 252 243 243 251 263 273 281 286 309 335 45 94 172 185 176 168 172 168 156 156 156 154 155 154 152 149 147 153 159 158 155 151 149 145 140 132 122 108 100 92 84
264 269 277 266 260 261 268 271 276 285 308 332 337 356 19 284 217 179 164 162 158 151 149 150 151 150 149 145 142 143 144 142 141 145 144 140 137 128 121 114 104 97 91 85
259 266 265 273 284 282 281 286 306 317 332 342 10 28 17 23 73 108 132 142 142 147 145 148 148 142 135 134 133 133 130 132 135 134 127 121 116 112 108 103 99 95 91 87
260 260 264 272 291 301 296 297 347 349 347 350 355 347 31 34 58 80 86 104 123 132 136 138 141 137 131 130 128 125 120 117 118 117 113 110 108 106 103 102 99 97 94 91
252 259 266 290 352 6 322 284 33 24 10 356 343 310 17 43 51 62 74 82 97 113 112 117 122 123 122 121 116 112 108 102 102 104 107 108 107 106 104 103 101 99 94 90
248 256 260 341 348 317 281 349 18 12 5 356 353 5 43 54 57 60 74 82 90 97 104 106 113 115 113 109 107 106 103 99 97 98 100 101 100 101 104 104 103 102 102 96
246 251 253 23 9 6 6 353 351 349 350 351 28 70 77 76 76 76 85 93 95 94 96 98 104 108 105 102 102 102 100 99 97 94 97 100 99 98 103 111 116 117 119 116
249 249 59 45 25 11 357 341 336 331 332 348 110 117 106 100 97 91 91 97 99 96 91 88 93 102 103 101 102 100 99 98 98 96 92 96 100 100 102 105 116 124 122 114
267 260 32 32 20 16 6 349 336 330 322 300 144 129 117 112 107 101 96 96 97 97 96 93 91 94 100 103 105 105 104 103 101 96 89 77 74 72 66 54 65 77 76 80
273 319 356 19 18 4 355 351 347 347 9 132 134 127 119 113 108 103 99 95 95 97 98 97 97 97 100 103 104 104 103 103 100 95 92 80 72 63 69 56 60 67 65 64
300 21 354 354 5 354 350 357 47 83 81 88 109 114 110 107 105 104 102 100 98 98 98 97 96 94 92 94 99 104 106 110 110 109 108 105 99 82 59 68 71 75 77 84
57 58 64 46 28 33 65 85 94 100 103 102 101 106 106 103 100 100 100 100 101 100 99 98 98 96 96 96 96 96 96 98 108 114 117 119 120 119 109 80 66 72 80 85
79 84 81 71 67 79 93 97 99 98 98 102 104 104 104 103 101 99 98 99 100 100 99 99 98 97 96 93 89 89 93 91 96 100 105 112 121 127 130 131 123 106 100 120
76 83 101 101 97 100 105 109 108 106 106 105 107 108 110 109 107 105 105 105 104 102 100 99 97 96 96 95 91 86 86 82 81 91 96 96 101 110 112 115 121 131 139 162
106 107 112 112 111 112 115 117 117 118 117 117 116 116 116 117 117 115 114 112 108 105 104 102 101 101 100 99 96 89 81 73 70 83 92 91 83 81 83 89 93 99 97 61
127 128 127 123 121 119 120 121 122 123 124 124 123 123 121 117 113 111 108 104 102 101 102 101 100 99 97 95 98 104 101 92 83 80 77 75 77 77 73 67 70 76 82 70
129 134 135 132 129 125 123 123 126 128 129 128 127 125 122 120 118 116 114 112 108 103 99 99 97 94 89 80 76 100 104 98 88 87 80 70 68 71 74 72 66 70 95 105
129 132 131 131 132 131 130 129 129 131 132 131 128 125 123 121 121 122 122 120 117 111 106 102 101 101 95 81 77 106 106 104 99 96 96 101 91 81 75 69 60 52 48 49
131 134 134 134 134 133 133 134 133 132 132 131 130 128 126 127 129 128 125 118 112 113 118 116 113 106 103 82 63 104 99 101 103 103 102 97 89 82 71 65 57 51 48 40
131 131 132 131 129 129 131 133 133 132 134 135 133 130 129 129 130 128 123 114 109 113 116 115 115 113 100 71 98 103 99 94 94 91 89 85 78 76 71 61 55 49 47 37
130 130 129 128 127 126 127 127 129 132 132 130 129 128 128 128 124 118 113 119 128 129 138 129 111 88 54 355 116 106 103 100 97 94 88 87 84 78 73 62 56 52 46 33
119 121 122 123 122 123 124 125 127 127 127 130 131 133 133 129 130 129 127 128 134 135 122 107 100 78 15 8 105 107 105 102 102 107 104 98 95 87 77 62 58 53 43 16
118 122 122 122 122 122 120 119 117 118 119 121 125 128 131 130 124 119 118 117 115 119 113 110 99 61 349 157 116 114 112 113 115 114 112 107 106 101 80 50 41 32 18 354
113 113 115 120 120 118 117 117 118 124 128 128 131 136 132 123 125 126 127 129 131 127 129 133 131 105 259 164 115 112 109 96 82 73 98 99 80 81 59 25 12 338 336 334
107 111 110 110 114 125 132 134 137 137 136 137 140 138 127 123 126 132 137 145 146 144 146 155 174 201 198 176 154 145 142 148 160 172 133 129 168 313 334 331 317 317 318 312
108 106 110 113 119 127 131 135 138 142 142 143 144 139 137 140 144 149 151 154 161 168 171 179 186 192 194 186 174 170 173 173 174 175 178 196 241 271 289 293 301 305 304 302
Height
1435 1432 1433 1440 1443 1443 1446 1445 1447 1443 1440 1435 1436 1438 1442 1445 1448 1450 1453 1458 1461 1464 1469 1473 1477 1480 1484 1487 1490 1493 1496 1499 1503 1507 1510 1513 1516 1519 1521 1524 1526 1528 1530 1531
1440 1434 1433 1438 1439 1439 1440 1439 1438 1437 1436 1430 1433 1437 1440 1443 1446 1448 1451 1456 1460 1463 1467 1472 1475 1479 1483 1486 1489 1493 1496 1499 1503 1506 1509 1511 1514 1517 1520 1522 1525 1526 1528 1530
1448 1437 1437 1443 1435 1435 1435 1432 1433 1438 1436 1432 1435 1438 1441 1444 1446 1446 1449 1453 1457 1461 1465 1470 1473 1477 1481 1485 1488 1492 1495 1498 1501 1504 1507 1510 1513 1515 1518 1521 1523 1525 1527 1528
1447 1448 1460 1440 1426 1427 1430 1431 1430 1432 1434 1436 1439 1441 1443 1444 1445 1448 1449 1452 1456 1460 1464 1469 1473 1477 1481 1485 1488 1491 1494 1497 1500 1503 1505 1508 1511 1514 1517 1519 1522 1524 1526 1527
1448 1452 1446 1434 1429 1429 1433 1436 1434 1436 1438 1440 1441 1442 1445 1446 1447 1448 1450 1452 1455 1459 1463 1467 1472 1476 1480 1484 1487 1490 1493 1495 1498 1501 1504 1507 1510 1513 1516 1518 1521 1523 1525 1527
1448 1455 1456 1442 1432 1433 1436 1443 1443 1443 1444 1445 1445 1446 1450 1451 1450 1450 1451 1453 1456 1458 1462 1466 1471 1475 1479 1483 1486 1489 1492 1495 1498 1501 1504 1507 1510 1513 1517 1519 1522 1524 1526 1528
1449 1451 1444 1438 1436 1436 1449 1453 1448 1448 1449 1449 1450 1453 1454 1453 1452 1452 1453 1454 1457 1459 1463 1467 1471 1475 1479 1483 1486 1490 1493 1496 1499 1502 1505 1508 1511 1515 1518 1521 1523 1525 1527 1529
1446 1452 1452 1441 1440 1446 1451 1450 1449 1449 1450 1451 1452 1453 1454 1454 1455 1455 1455 1457 1459 1461 1465 1469 1472 1475 1479 1483 1487 1491 1494 1498 1501 1504 1508 1511 1514 1518 1521 1523 1525 1527 1529 1530
1442 1446 1444 1444 1447 1449 1450 1450 1450 1450 1450 1451 1452 1453 1455 1456 1456 1457 1458 1459 1461 1464 1467 1471 1475 1477 1480 1485 1489 1493 1496 1500 1504 1507 1511 1515 1517 1520 1523 1526 1527 1529 1531 1532
1439 1439 1442 1445 1448 1449 1450 1450 1449 1449 1449 1450 1451 1453 1454 1456 1457 1459 1461 1462 1464 1467 1470 1475 1478 1480 1483 1488 1491 1495 1499 1503 1507 1511 1514 1517 1520 1523 1525 1527 1529 1530 1531 1533
1439 1441 1443 1446 1449 1449 1449 1449 1448 1448 1448 1449 1450 1452 1454 1456 1459 1461 1464 1466 1468 1471 1475 1479 1482 1485 1488 1492 1495 1499 1503 1507 1511 1514 1517 1519 1522 1525 1527 1529 1530 1531 1532 1533
1443 1445 1447 1449 1449 1449 1448 1448 1447 1446 1447 1449 1450 1452 1455 1458 1461 1464 1467 1470 1473 1476 1479 1483 1487 1490 1494 1497 1500 1503 1507 1511 1514 1518 1521 1523 1525 1527 1529 1530 1532 1532 1533 1533
1444 1445 1447 1449 1449 1448 1447 1447 1447 1447 1448 1450 1453 1455 1457 1461 1465 1468 1471 1475 1478 1481 1485 1489 1492 1495 1499 1502 1505 1508 1511 1514 1518 1521 1523 1525 1527 1528 1529 1531 1532 1533 1533 1533
1445 1446 1448 1449 1449 1448 1448 1448 1449 1450 1452 1454 1457 1459 1462 1466 1470 1474 1478 1481 1484 1487 1491 1494 1497 1501 1504 1507 1509 1512 1515 1518 1521 1523 1525 1527 1529 1530 1531 1532 1533 1533 1534 1534
1447 1447 1449 1450 1450 1451 1450 1451 1452 1454 1457 1460 1463 1466 1469 1473 1476 1480 1484 1487 1490 1494 1497 1500 1503 1506 1509 1511 1514 1516 1519 1521 1524 1526 1527 1529 1531 1532 1533 1534 1534 1534 1534 1534
1447 1448 1450 1451 1452 1454 1454 1455 1457 1460 1463 1466 1469 1473 1476 1480 1483 1487 1490 1493 1496 1499 1502 1505 1507 1510 1512 1515 1517 1519 1521 1524 1526 1528 1529 1531 1532 1534 1535 1536 1536 1536 1536 1535
1447 1449 1452 1454 1455 1457 1458 1460 1462 1465 1468 1472 1475 1479 1482 1486 1489 1493 1496 1499 1502 1505 1507 1510 1512 1515 1517 1519 1521 1523 1525 1526 1528 1530 1531 1532 1534 1535 1536 1536 1537 1536 1536 1536
1448 1451 1453 1455 1458 1460 1463 1465 1467 1470 1473 1477 1481 1484 1488 1491 1494 1497 1501 1504 1506 1509 1512 1514 1516 1517 1519 1521 1524 1526 1527 1529 1530 1531 1532 1533 1535 1536 1536 1537 1537 1537 1537 1536
1450 1452 1456 1458 1461 1464 1467 1470 1473 1476 1479 1483 1486 1489 1493 1496 1499 1502 1505 1508 1510 1512 1515 1517 1518 1520 1521 1523 1526 1528 1529 1530 1532 1533 1533 1534 1535 1536 1537 1537 1537 1538 1538 1537
1452 1455 1458 1462 1465 1468 1471 1474 1478 1481 1484 1487 1490 1494 1497 1500 1503 1506 1509 1511 1514 1515 1517 1519 1521 1523 1524 1526 1528 1530 1531 1532 1533 1534 1535 1535 1536 1537 1537 1537 1538 1538 1538 1537
1455 1458 1462 1465 1469 1472 1475 1478 1481 1485 1488 1491 1494 1498 1501 1504 1507 1509 1511 1513 1516 1518 1520 1521 1523 1525 1527 1528 1529 1531 1532 1533 1534 1535 1535 1536 1537 1537 1538 1538 1538 1538 1538 1537
1458 1461 1465 1469 1472 1476 1479 1482 1485 1489 1492 1495 1498 1501 1504 1507 1509 1511 1513 1515 1517 1520 1522 1524 1525 1526 1528 1529 1531 1532 1533 1534 1534 1535 1536 1537 1537 1538 1538 1538 1538 1538 1537 1537
1461 1465 1469 1472 1476 1479 1483 1486 1489 1492 1495 1498 1501 1504 1506 1509 1511 1513 1515 1517 1519 1521 1523 1524 1526 1527 1529 1530 1532 1533 1533 1534 1535 1536 1536 1537 1537 1538 1538 1538 1538 1537 1537 1536
1466 1469 1473 1477 1480 1483 1487 1490 1493 1496 1498 1501 1504 1506 1508 1511 1513 1515 1516 1518 1520 1522 1523 1525 1526 1528 1529 1531 1532 1533 1534 1535 1535 1536 1536 1537 1537 1538 1538 1538 1537 1537 1536 1535
1470 1474 1477 1481 1484 1487 1490 1493 1496 1499 1502 1504 1506 1508 1510 1512 1514 1515 1517 1519 1521 1522 1524 1525 1527 1528 1530 1531 1532 1533 1534 1534 1535 1536 1536 1537 1537 1537 1537 1537 1537 1536 1535 1534
1475 1479 1482 1485 1488 1491 1493 1496 1499 1501 1503 1506 1508 1510 1512 1513 1514 1516 1517 1519 1521 1523 1524 1525 1527 1528 1530 1531 1532 1533 1533 1534 1534 1535 1536 1536 1536 1536 1536 1536 1535 1534 1533 1532
1481 1484 1486 1489 1492 1494 1496 1498 1501 1503 1505 1507 1509 1511 1512 1514 1515 1517 1518 1520 1521 1523 1525 1526 1527 1529 1530 1531 1532 1532 1533 1534 1534 1534 1535 1535 1535 1535 1534 1534 1533 1532 1531 1530